Fort Collins, CO

8:34 AM MST on December 09, 2019 (GMT -0700)
Fort Collins-Loveland Municipal

Weather History for KFNL - October, 2019

Change the Weather History Date:

Wednesday, October 9, 2019

  Actual Average Record
Temperature  
Mean Temperature 56 °F -  
Max Temperature 82 °F - 82 °F (2003)
Min Temperature 29 °F - 28 °F (2000)
Degree Days  
Heating Degree Days 9    
Month to date heating degree days 112  
Cooling Degree Days 0    
Month to date cooling degree days 0  
Growing Degree Days 5 (Base 50)    
Moisture  
Dew Point 28 °F    
Average Humidity 47    
Maximum Humidity 85    
Minimum Humidity 9    
Precipitation  
Precipitation 0.08 in - 4.00 in (2001)
Snow  
Snow 0.00 in - - ()
Snow Depth 0.00 in    
Sea Level Pressure  
Sea Level Pressure 29.75 in    
Wind  
Wind Speed 9 mph (NE)    
Max Wind Speed 29 mph    
Max Gust Speed 41 mph    
Visibility 9 miles    
Events Snow , Thunderstorm    
T = Trace of Precipitation, MM = Missing Value Source: NWS Daily Summary

Daily Weather History Graph

Daily Weather History Graph

Search for Another Location

Airport or City:

Astronomy

Oct. 09, 2019 Rise Set
Actual Time 7:04 AM MDT 6:29 PM MDT
Civil Twilight 6:37 AM MDT 6:56 PM MDT
Nautical Twilight 6:05 AM MDT 7:28 PM MDT
Astronomical Twilight 5:33 AM MDT 7:59 PM MDT
Moon 5:03 PM MDT 2:52 AM MDT
Length of Visible Light 12h 19m
Length of Day
11h 25m
Waxing Gibbous, 85% of the Moon is Illuminated
Oct 9
Waxing Gibbous
Oct 13
Full
Oct 21
Last Quarter
Oct 27
New
Nov 4
First Quarter

Hourly Weather History & Observations

Time (MDT) Temp. Windchill Dew Point Humidity Pressure Visibility Wind Dir Wind Speed Gust Speed Precip Events Conditions
12:56 AM 48.0 °F - 26.1 °F 42% 29.68 in 10.0 mi Calm Calm - N/A   Clear
1:56 AM 43.0 °F 39.5 °F 27.0 °F 53% 29.68 in 10.0 mi North 5.8 mph - N/A   Clear
2:56 AM 44.1 °F 42.5 °F 25.0 °F 47% 29.65 in 10.0 mi Variable 3.5 mph - N/A   Clear
3:56 AM 46.0 °F 44.8 °F 34.0 °F 63% 29.62 in 10.0 mi North 3.5 mph - N/A   Clear
4:56 AM 45.0 °F 41.2 °F 26.1 °F 48% 29.63 in 10.0 mi NE 6.9 mph - N/A   Clear
5:56 AM 42.1 °F 40.2 °F 30.9 °F 65% 29.65 in 10.0 mi South 3.5 mph - N/A   Clear
6:56 AM 44.1 °F - 32.0 °F 63% 29.66 in 10.0 mi Calm Calm - N/A   Clear
7:56 AM 48.0 °F - 30.0 °F 50% 29.65 in 10.0 mi Calm Calm - N/A   Clear
8:56 AM 48.9 °F - 34.0 °F 56% 29.65 in 10.0 mi South 3.5 mph - N/A   Clear
9:56 AM 57.9 °F - 36.0 °F 44% 29.63 in 10.0 mi NNE 5.8 mph - N/A   Unknown
10:56 AM - - - N/A% - - North - - N/A   Unknown
11:56 AM 73.9 °F - 24.1 °F 16% 29.68 in 10.0 mi SE 9.2 mph - N/A   Unknown
12:56 PM 77.0 °F - 28.0 °F 17% 29.64 in 6.0 mi SE 11.5 mph - N/A   Haze
1:56 PM 79.0 °F - 19.9 °F 11% 29.60 in 10.0 mi SSE 11.5 mph - 0.03 in   Clear
2:56 PM 80.1 °F - 18.0 °F 10% 29.58 in 10.0 mi SE 11.5 mph 18.4 mph N/A   Clear
3:56 PM 73.9 °F - 32.0 °F 21% 29.61 in 9.0 mi NNE 24.2 mph 33.4 mph N/A   Partly Cloudy
4:11 PM 64.4 °F - 33.8 °F 32% 29.63 in 10.0 mi North 24.2 mph 33.4 mph N/A   Clear
4:56 PM 57.9 °F - 34.0 °F 41% 29.68 in 10.0 mi North 25.3 mph 38.0 mph N/A   Clear
5:56 PM 45.0 °F 35.4 °F 30.0 °F 56% 29.75 in 10.0 mi NNE 28.8 mph 35.7 mph N/A   Clear
6:56 PM 41.0 °F 31.4 °F 27.0 °F 57% 29.83 in 10.0 mi NNE 21.9 mph 33.4 mph N/A   Mostly Cloudy
7:56 PM 37.9 °F 27.1 °F 25.0 °F 60% 29.89 in 10.0 mi North 23.0 mph 35.7 mph N/A   Overcast
8:34 PM 35.6 °F 24.2 °F 24.8 °F 65% 29.90 in 10.0 mi NNE 21.9 mph 34.5 mph N/A Thunderstorm Overcast
8:56 PM 34.0 °F 20.8 °F 26.1 °F 73% 29.91 in 2.5 mi NNE 27.6 mph 32.2 mph 0.00 in Snow , Thunderstorm Light Thunderstorms and Snow
9:13 PM 32.0 °F 20.8 °F 26.6 °F 80% 29.96 in 4.0 mi NNE 17.3 mph - 0.00 in Snow , Thunderstorm Light Snow
9:29 PM 32.0 °F 21.6 °F 28.4 °F 87% 29.96 in 8.0 mi NNE 15.0 mph - 0.04 in Snow Light Snow
9:52 PM 30.2 °F 18.9 °F 26.6 °F 86% 29.98 in 7.0 mi NNE 16.1 mph - 0.05 in Snow Light Snow
9:56 PM 30.9 °F 20.2 °F 27.0 °F 85% 29.98 in 6.0 mi NNE 15.0 mph 24.2 mph 0.05 in Snow Light Snow
10:56 PM 30.0 °F 19.5 °F 27.0 °F 88% 30.01 in 9.0 mi NE 13.8 mph - 0.00 in   Overcast
11:56 PM 28.9 °F 15.4 °F 24.1 °F 82% 29.94 in 10.0 mi NNE 21.9 mph 28.8 mph 0.00 in   Overcast